View from above orbital plane
|
View from above satellite
|
Ground track
|
The orbit data is extracted from the following two-line orbital elements,
1 44881U 19093C 21017.17047558 -.00000261 00000-0 -26432-4 0 9997
2 44881 97.9398 97.5517 0016200 65.5354 294.7535 14.81422161 58337
Epoch (UTC): | 17 January 2021 04:05:29 |
Eccentricity: | 0.0016200 |
inclination: | 97.9398° |
perigee height: | 613 km |
apogee height: | 636 km |
right ascension of ascending node: | 97.5517° |
argument of perigee: | 65.5354° |
revolutions per day: | 14.81422161 |
mean anomaly at epoch: | 294.7535° |
orbit number at epoch: | 5833 |
The dashed part of the orbit path shows where the satellite is in the earth's shadow,
|
|